Location: LDNL
(36.4545°S, 141.6685°E)
Time: 14:14:36
(UTC+11:00)

Courier 1B Rocket - Pass Details

Date: 08 February 2023
Orbit: 920 x 1202 km, 28.2° (Epoch: 25 March)

Event Time Altitude Azimuth Distance (km) Brightness Sun altitude
Rises 04:53:56 0° 296° (WNW) 3,937 - -22.2°
Reaches altitude 10° 04:56:49 10° 303° (WNW) 3,019 - -21.7°
Exits shadow 05:01:16 33° 330° (NNW) 1,865 5.9 -21.0°
Maximum altitude 05:03:47 42° 10° (N) 1,633 5.9 -20.6°
Drops below altitude 10° 05:11:01 10° 77° (ENE) 3,138 8.2 -19.5°
Sets 05:14:04 0° 84° (E) 4,107 9.0 -19.0°
